Location: Fenile
(46.0500°N, 9.5500°E)
Time: 20:43:59
(UTC+00:00)

Cosmos 1470 Rocket - Pass Details

Date: 03 March 2021
Orbit: 603 x 634 km, 82.5° (Epoch: 13 April)

Event Time Altitude Azimuth Distance (km) Brightness Sun altitude
Rises 18:34:55 0° 196° (SSW) 2,917 7.1 -15.3°
Reaches altitude 10° 18:37:11 10° 200° (SSW) 2,012 6.3 -15.7°
Maximum altitude 18:41:36 61° 281° (W) 718 4.1 -16.5°
Drops below altitude 10° 18:46:02 10° 2° (N) 2,015 6.3 -17.2°
Sets 18:48:18 0° 6° (N) 2,922 7.1 -17.6°
